Gainesville, FL

3:36 AM EST on February 08, 2016 (GMT -0500)
Gainesville Regional

Weather History for KGNV - February, 2014

Change the Weather History Date:

Monday, February 17, 2014

  Actual Average Record
Temperature  
Mean Temperature 57 °F 58 °F  
Max Temperature 75 °F 70 °F 85 °F (1928)
Min Temperature 38 °F 46 °F 23 °F (2007)
Degree Days  
Heating Degree Days 8 8  
Month to date heating degree days 144 153  
Since 1 July heating degree days 859 955  
Cooling Degree Days 0 1  
Month to date cooling degree days 20 13  
Year to date cooling degree days 30 25  
Growing Degree Days 5 (Base 50)    
Moisture  
Dew Point 39 °F    
Average Humidity 61    
Maximum Humidity 100    
Minimum Humidity 22    
Precipitation  
Precipitation 0.00 in 0.11 in 1.08 in (2015)
Month to date precipitation 1.36 1.89  
Year to date precipitation 6.56 5.20  
Snow  
Snow 0.00 in 0.00 in 0.00 in ()
Month to date snowfall 0.0 0.0  
Since 1 July snowfall 0.0 0.0  
Snow Depth 0.00 in    
Sea Level Pressure  
Sea Level Pressure 30.21 in    
Wind  
Wind Speed 4 mph (SW)    
Max Wind Speed 10 mph    
Max Gust Speed 17 mph    
Visibility 10 miles    
Events      
T = Trace of Precipitation, MM = Missing Value Source: NWS Daily Summary

Daily Weather History Graph

Daily Weather History Graph

Search for Another Location

Airport or City:

Trip Planner

Search our weather history database for the weather conditions in past years. The results will help you decide how hot, cold, wet, or windy it might be!

Date:

Astronomy

Feb. 17, 2014 Rise Set
Actual Time 7:06 AM EST 6:19 PM EST
Civil Twilight 6:42 AM EST 6:44 PM EST
Nautical Twilight 6:14 AM EST 7:12 PM EST
Astronomical Twilight 5:46 AM EST 7:39 PM EST
Moon 8:56 PM EST (2/17) 8:21 AM EST (2/17)
Length of Visible Light 12h 01m
Length of Day
11h 13m
Waning Gibbous, 93% of the Moon is Illuminated
Feb 17
Waning Gibbous
Feb 22
Last Quarter
Mar 1
New
Mar 8
First Quarter
Mar 16
Full

Hourly Weather History & Observations

Time (EST) Temp. Windchill Dew Point Humidity Pressure Visibility Wind Dir Wind Speed Gust Speed Precip Events Conditions
12:53 AM 43.0 °F 41.3 °F 39.0 °F 86% 30.22 in 10.0 mi NW 3.5 mph - N/A   Clear
1:53 AM 42.1 °F 40.2 °F 39.0 °F 89% 30.20 in 10.0 mi West 3.5 mph - N/A   Clear
2:53 AM 39.9 °F - 37.9 °F 93% 30.19 in 10.0 mi Calm Calm - N/A   Clear
3:53 AM 39.9 °F - 37.9 °F 93% 30.19 in 10.0 mi Calm Calm - N/A   Clear
4:53 AM 39.9 °F - 37.0 °F 89% 30.20 in 10.0 mi Calm Calm - N/A   Clear
5:53 AM 37.9 °F - 37.0 °F 97% 30.22 in 10.0 mi Calm Calm - N/A   Clear
6:53 AM 39.0 °F - 37.0 °F 93% 30.22 in 9.0 mi Calm Calm - N/A   Clear
7:53 AM 41.0 °F - 39.0 °F 93% 30.23 in 9.0 mi Calm Calm - N/A   Clear
8:53 AM 55.9 °F - 50.0 °F 80% 30.26 in 10.0 mi Variable 3.5 mph - N/A   Clear
9:53 AM 63.0 °F - 46.0 °F 54% 30.26 in 10.0 mi NE 6.9 mph - N/A   Clear
10:53 AM 64.9 °F - 43.0 °F 45% 30.25 in 10.0 mi ESE 6.9 mph - N/A   Clear
11:53 AM 68.0 °F - 41.0 °F 37% 30.24 in 10.0 mi SSE 8.1 mph - N/A   Clear
12:53 PM 70.0 °F - 33.1 °F 26% 30.22 in 10.0 mi ESE 5.8 mph - N/A   Clear
1:53 PM 72.0 °F - 30.9 °F 22% 30.19 in 10.0 mi South 6.9 mph - N/A   Clear
2:53 PM 73.9 °F - 37.9 °F 27% 30.17 in 10.0 mi South 8.1 mph - N/A   Clear
3:53 PM 73.9 °F - 34.0 °F 23% 30.16 in 10.0 mi SSW 5.8 mph - N/A   Clear
4:53 PM 73.9 °F - 34.0 °F 23% 30.17 in 10.0 mi South 4.6 mph - N/A   Clear
5:53 PM 71.1 °F - 35.1 °F 27% 30.17 in 10.0 mi SSW 3.5 mph - N/A   Clear
6:53 PM 61.0 °F - 39.0 °F 44% 30.19 in 10.0 mi West 3.5 mph - N/A   Clear
7:53 PM 57.9 °F - 42.1 °F 56% 30.20 in 10.0 mi WSW 5.8 mph - N/A   Clear
8:53 PM 54.0 °F - 43.0 °F 66% 30.20 in 10.0 mi WSW 6.9 mph - N/A   Clear
9:53 PM 53.1 °F - 39.9 °F 61% 30.20 in 10.0 mi West 4.6 mph - N/A   Clear
10:53 PM 52.0 °F - 37.0 °F 57% 30.21 in 10.0 mi West 5.8 mph - N/A   Clear
11:53 PM 46.9 °F - 37.0 °F 68% 30.22 in 10.0 mi Calm Calm - N/A   Clear